GW1107 Weather Reports


Display with metric or nautical units.
time (UTC)temp
F
wind
direction
speed
MPH
gust
MPH
rain 1hr
in
rain 24hr
in
rain mn
in
humidity
%
barometer
mb
20260507054543 41 0 0.0 3.0 0.02 0.16 0.16 91 1014.6
20260507053038 40 207 0.0 1.0 0.06 0.15 0.15 92 1014.6
20260507051536 40 191 0.0 1.0 0.08 0.15 0.15 92 1014.4
20260507050058 40 40 0.0 3.0 0.12 0.15 0.15 91 1014.4
20260507044545 40 207 4.0 12.0 0.11 0.13 0.13 91 1014.6
20260507043040 40 208 1.0 7.0 0.07 0.09 0.09 90 1014.4
20260507041544 41 146 1.0 8.0 0.06 0.07 0.07 89 1014.4
20260507040036 42 229 2.0 5.0 0.03 0.03 0.03 86 1014.2
20260507034540 43 184 0.0 1.0 0.02 0.02 0.02 88 1014.0
20260507033041 44 0 0.0 3.0 0.02 0.02 0.02 85 1013.6
20260507031602 45 211 0.0 2.0 0.01 0.01 0.01 81 1013.5
20260507030036 46 0 1.0 3.0 0.00 0.00 0.00 77 1013.3
20260507024540 46 188 0.0 2.0 0.00 0.00 0.00 76 1013.3
20260507023032 46 200 0.0 1.0 0.00 0.00 0.00 82 1013.2
20260507021547 45 0 0.0 3.0 0.00 0.00 0.00 84 1013.0
20260507020035 45 226 1.0 4.0 0.00 0.00 0.00 79 1013.1
20260507014532 45 240 1.0 3.0 0.00 0.00 0.00 83 1013.0
20260507013035 45 278 1.0 3.0 0.00 0.00 0.00 80 1013.1
20260507011536 46 202 2.0 6.0 0.00 0.00 0.00 79 1013.1
20260507010040 47 236 1.0 6.0 0.00 0.00 0.00 77 1013.0
20260507004530 47 151 1.0 4.0 0.00 0.00 0.00 78 1012.9
20260507003035 47 219 1.0 7.0 0.00 0.00 0.00 78 1012.8
20260507001533 47 246 1.0 5.0 0.00 0.00 0.00 76 1012.7
20260507000034 47 252 1.0 8.0 0.00 0.00 0.00 76 1012.8
20260506234530 48 247 1.0 5.0 0.00 0.00 0.00 75 1012.6
20260506233036 47 270 2.0 6.0 0.00 0.00 0.00 75 1012.5
20260506231535 47 298 3.0 7.0 0.00 0.00 0.00 75 1012.4
20260506230034 47 347 3.0 7.0 0.00 0.00 0.00 74 1012.3
20260506224533 48 274 1.0 7.0 0.00 0.00 0.00 71 1012.2
20260506223030 48 223 2.0 9.0 0.00 0.00 0.00 68 1012.2
20260506221535 48 203 4.0 9.0 0.00 0.00 0.00 65 1012.0
20260506220036 48 131 3.0 9.0 0.00 0.00 0.00 65 1011.9
20260506214534 48 283 1.0 5.0 0.00 0.00 0.00 68 1011.9
20260506213032 48 356 1.0 5.0 0.00 0.00 0.00 69 1011.7
20260506211533 48 270 3.0 7.0 0.00 0.00 0.00 70 1011.7
20260506210038 49 14 1.0 5.0 0.00 0.00 0.00 67 1011.6
20260506204548 49 302 2.0 4.0 0.00 0.00 0.00 68 1011.5
20260506203034 47 218 2.0 5.0 0.00 0.00 0.00 72 1011.5
20260506201534 47 233 2.0 5.0 0.00 0.00 0.00 73 1011.3
20260506200034 47 165 1.0 5.0 0.00 0.00 0.00 72 1011.2
20260506194542 46 0 1.0 5.0 0.00 0.00 0.00 73 1011.2
20260506193034 46 333 0.0 5.0 0.00 0.00 0.00 74 1011.1
20260506191534 47 229 1.0 4.0 0.00 0.00 0.00 72 1011.1
20260506190033 46 25 0.0 4.0 0.00 0.00 0.00 72 1011.0
20260506184530 45 49 1.0 2.0 0.00 0.00 0.00 72 1010.9
20260506183033 45 71 1.0 2.0 0.00 0.00 0.00 74 1010.9
20260506181536 45 351 0.0 2.0 0.00 0.00 0.00 74 1010.8
20260506180036 44 0 0.0 2.0 0.00 0.00 0.00 76 1010.7
20260506174535 44 197 0.0 2.0 0.00 0.00 0.00 76 1010.6
20260506173033 43 0 0.0 2.0 0.00 0.00 0.00 76 1010.6
20260506171540 43 6 0.0 1.0 0.00 0.00 0.00 78 1010.5
20260506170035 43 0 0.0 1.0 0.00 0.00 0.00 78 1010.4
20260506164530 42 0 0.0 1.0 0.00 0.00 0.00 79 1010.3
20260506163036 42 0 0.0 3.0 0.00 0.00 0.00 80 1010.2
20260506161539 41 65 0.0 3.0 0.00 0.00 0.00 81 1010.1
20260506160043 41 86 1.0 5.0 0.00 0.00 0.00 81 1010.0
20260506154533 41 28 2.0 4.0 0.00 0.00 0.00 81 1009.9
20260506153032 40 42 2.0 4.0 0.00 0.00 0.00 81 1009.9
20260506151536 40 28 1.0 4.0 0.00 0.00 0.00 81 1009.8
20260506150034 39 336 0.0 2.0 0.00 0.00 0.00 82 1009.8
20260506144531 39 17 0.0 2.0 0.00 0.00 0.00 82 1009.7
20260506143043 0 63 1.0 0.0 0.00 0.00 0.00 81 1009.7
20260506141530 39 0 0.0 1.0 0.00 0.00 0.00 81 1009.7
20260506140038 38 0 0.0 1.0 0.00 0.00 0.00 83 1009.7
20260506134534 37 0 0.0 0.0 0.00 0.00 0.00 85 1009.6
20260506133034 37 0 0.0 0.0 0.00 0.00 0.00 84 1009.5
20260506131532 37 0 0.0 0.0 0.00 0.00 0.00 85 1009.5
20260506130030 37 0 0.0 0.0 0.00 0.00 0.00 84 1009.5
20260506124535 37 0 0.0 0.0 0.00 0.00 0.00 84 1009.4
20260506123034 38 0 0.0 0.0 0.00 0.00 0.00 84 1009.4
20260506121529 38 0 0.0 0.0 0.00 0.00 0.00 83 1009.3
20260506120032 39 0 0.0 0.0 0.00 0.00 0.00 81 1009.2
20260506114540 39 0 0.0 0.0 0.00 0.00 0.00 81 1009.1
20260506113032 40 0 0.0 1.0 0.00 0.00 0.00 80 1009.1
20260506111537 40 250 0.0 2.0 0.00 0.00 0.00 79 1009.1
20260506110037 40 0 0.0 1.0 0.00 0.00 0.00 78 1009.0
20260506104533 41 0 0.0 1.0 0.00 0.01 0.00 75 1008.9
20260506103030 41 0 0.0 2.0 0.00 0.01 0.00 73 1008.9
20260506101547 42 160 0.0 2.0 0.00 0.01 0.00 71 1008.8
20260506100035 41 171 0.0 2.0 0.00 0.01 0.00 71 1008.7
20260506094531 41 162 1.0 6.0 0.00 0.01 0.00 72 1008.6
20260506093031 38 0 0.0 0.0 0.00 0.01 0.00 79 1008.5
20260506091533 38 0 0.0 0.0 0.00 0.01 0.00 79 1008.3
20260506090030 39 0 0.0 0.0 0.00 0.01 0.00 78 1008.2
20260506084533 39 153 0.0 0.0 0.00 0.01 0.00 78 1008.0
20260506083036 38 0 0.0 0.0 0.00 0.01 0.00 78 1008.1
20260506081536 38 0 0.0 0.0 0.00 0.01 0.00 78 1007.9
20260506073043 40 0 0.0 1.0 0.00 0.01 0.01 73 1007.5
20260506071545 40 0 0.0 1.0 0.00 0.01 0.01 72 1007.4
20260506061534 44 0 0.0 0.0 0.00 0.01 0.01 64 1006.9